When you browse on this site, cookies collect data to enhance your experience and personalize the content and advertising you see.
Visit our Privacy Policy to learn more. By continuing to use the site, you agree to this use of cookies and data.

Meteo pe oră la Ali-Yurt

Astăzi, 6 August, Joi

Timp Temperatura Precipitaţii Vânt Presiune Umiditate
00:00 +17°C° 0 mm 3 m/s 700 mmHg 60%
01:00 +17°C° 0 mm 3 m/s 700 mmHg 59%
02:00 +17°C° 0 mm 2 m/s 700 mmHg 59%
03:00 +18°C° 0 mm 2 m/s 701 mmHg 58%
04:00 +18°C° 0 mm 2 m/s 701 mmHg 58%
05:00 +18°C° 0 mm 2 m/s 701 mmHg 58%
06:00 +19°C° 0 mm 2 m/s 701 mmHg 58%
07:00 +20°C° 0 mm 2 m/s 702 mmHg 55%
08:00 +23°C° 0 mm 2 m/s 702 mmHg 52%
09:00 +24°C° 0 mm 2 m/s 702 mmHg 49%
10:00 +25°C° 0 mm 2 m/s 702 mmHg 46%
11:00 +26°C° 0 mm 3 m/s 702 mmHg 43%
12:00 +27°C° 0 mm 3 m/s 702 mmHg 40%
13:00 +28°C° 0 mm 3 m/s 702 mmHg 39%
14:00 +28°C° 0 mm 3 m/s 702 mmHg 38%
15:00 +29°C° 0 mm 3 m/s 702 mmHg 37%
16:00 +28°C° 0 mm 2 m/s 702 mmHg 41%
17:00 +27°C° 0 mm 2 m/s 702 mmHg 46%
18:00 +26°C° 0 mm 2 m/s 702 mmHg 51%
19:00 +24°C° 0 mm 2 m/s 703 mmHg 54%
20:00 +22°C° 0 mm 1 m/s 703 mmHg 57%
21:00 +21°C° 0 mm 1 m/s 703 mmHg 60%
22:00 +19°C° 0 mm 2 m/s 703 mmHg 60%
23:00 +19°C° 0 mm 2 m/s 703 mmHg 60%

Mâine, 7 August, Vineri

Timp Temperatura Precipitaţii Vânt Presiune Umiditate
00:00 +19°C° 0 mm 2 m/s 703 mmHg 60%
01:00 +19°C° 0 mm 2 m/s 703 mmHg 61%
02:00 +19°C° 0 mm 2 m/s 703 mmHg 62%
03:00 +18°C° 0 mm 2 m/s 703 mmHg 62%
04:00 +19°C° 0 mm 2 m/s 703 mmHg 62%
05:00 +19°C° 0 mm 2 m/s 703 mmHg 62%
06:00 +19°C° 0 mm 2 m/s 703 mmHg 62%
07:00 +23°C° 0 mm 2 m/s 703 mmHg 55%
08:00 +25°C° 0 mm 2 m/s 704 mmHg 49%
09:00 +28°C° 0 mm 1 m/s 704 mmHg 42%
10:00 +29°C° 0 mm 2 m/s 704 mmHg 40%
11:00 +30°C° 0 mm 2 m/s 704 mmHg 37%
12:00 +31°C° 0 mm 2 m/s 704 mmHg 34%
13:00 +31°C° 0 mm 2 m/s 704 mmHg 34%
14:00 +31°C° 0 mm 1 m/s 703 mmHg 35%
15:00 +31°C° 0 mm 1 m/s 703 mmHg 35%
16:00 +30°C° 0 mm 1 m/s 703 mmHg 39%
17:00 +29°C° 0 mm 1 m/s 703 mmHg 44%
18:00 +28°C° 0 mm 1 m/s 703 mmHg 48%
19:00 +27°C° 0 mm 1 m/s 703 mmHg 49%
20:00 +26°C° 0 mm 1 m/s 703 mmHg 49%
21:00 +25°C° 0 mm 1 m/s 703 mmHg 49%
22:00 +24°C° 0 mm 1 m/s 703 mmHg 50%
23:00 +24°C° 0 mm 2 m/s 702 mmHg 51%

Poimâine, 8 August, Sâmbătă

Timp Temperatura Precipitaţii Vânt Presiune Umiditate
00:00 +23°C° 0 mm 2 m/s 702 mmHg 52%
01:00 +21°C° 0 mm 2 m/s 702 mmHg 54%
02:00 +20°C° 0 mm 2 m/s 701 mmHg 55%
03:00 +20°C° 0 mm 2 m/s 701 mmHg 57%
04:00 +20°C° 0 mm 2 m/s 701 mmHg 57%
05:00 +20°C° 0 mm 2 m/s 701 mmHg 57%
06:00 +20°C° 0 mm 2 m/s 701 mmHg 57%
07:00 +24°C° 0 mm 2 m/s 701 mmHg 50%
08:00 +26°C° 0 mm 1 m/s 701 mmHg 44%
09:00 +29°C° 0 mm 1 m/s 701 mmHg 38%
10:00 +30°C° 0 mm 1 m/s 701 mmHg 35%
11:00 +31°C° 0 mm 1 m/s 701 mmHg 32%
12:00 +32°C° 0 mm 2 m/s 701 mmHg 29%
13:00 +32°C° 0 mm 2 m/s 701 mmHg 29%
14:00 +34°C° 0 mm 2 m/s 700 mmHg 28%
15:00 +34°C° 0 mm 2 m/s 700 mmHg 27%
16:00 +32°C° 0 mm 2 m/s 700 mmHg 32%
17:00 +30°C° 0 mm 2 m/s 699 mmHg 36%
18:00 +29°C° 0 mm 2 m/s 699 mmHg 41%
19:00 +27°C° 0 mm 2 m/s 699 mmHg 43%
20:00 +26°C° 0 mm 2 m/s 699 mmHg 46%
21:00 +24°C° 0 mm 1 m/s 699 mmHg 48%
22:00 +23°C° 0 mm 1 m/s 699 mmHg 50%
23:00 +23°C° 0 mm 1 m/s 698 mmHg 52%

9 August, Duminică

Timp Temperatura Precipitaţii Vânt Presiune Umiditate
00:00 +22°C° 0 mm 1 m/s 698 mmHg 54%
01:00 +21°C° 0 mm 1 m/s 698 mmHg 55%
02:00 +20°C° 0 mm 2 m/s 698 mmHg 57%
03:00 +20°C° 0 mm 2 m/s 697 mmHg 58%
04:00 +20°C° 0 mm 2 m/s 698 mmHg 59%
05:00 +21°C° 0 mm 1 m/s 698 mmHg 60%
06:00 +21°C° 0 mm 1 m/s 698 mmHg 61%
07:00 +23°C° 0 mm 1 m/s 698 mmHg 55%
08:00 +26°C° 0 mm 1 m/s 698 mmHg 49%
09:00 +28°C° 0 mm 1 m/s 698 mmHg 43%
10:00 +29°C° 0 mm 2 m/s 698 mmHg 40%
11:00 +30°C° 0 mm 2 m/s 698 mmHg 37%
12:00 +32°C° 0 mm 2 m/s 698 mmHg 35%
13:00 +31°C° 0 mm 3 m/s 698 mmHg 35%
14:00 +31°C° 0 mm 3 m/s 698 mmHg 36%
15:00 +31°C° 0 mm 3 m/s 698 mmHg 36%
16:00 +30°C° 0 mm 3 m/s 698 mmHg 42%
17:00 +28°C° 0 mm 3 m/s 698 mmHg 48%
18:00 +27°C° 0 mm 2 m/s 698 mmHg 53%
19:00 +26°C° 0 mm 3 m/s 698 mmHg 59%
20:00 +24°C° 0 mm 3 m/s 698 mmHg 65%
21:00 +22°C° 0 mm 3 m/s 698 mmHg 71%
22:00 +21°C° 0.1 mm 2 m/s 698 mmHg 72%
23:00 +20°C° 0.1 mm 2 m/s 698 mmHg 74%

10 August, Luni

Timp Temperatura Precipitaţii Vânt Presiune Umiditate
00:00 +21°C° 0.1 mm 1 m/s 698 mmHg 76%
01:00 +20°C° 0.5 mm 1 m/s 698 mmHg 77%
02:00 +20°C° 0.5 mm 1 m/s 698 mmHg 79%
03:00 +19°C° 0.5 mm 1 m/s 698 mmHg 80%
04:00 +19°C° 0.2 mm 1 m/s 698 mmHg 80%
05:00 +20°C° 0.2 mm 1 m/s 698 mmHg 80%
06:00 +20°C° 0.2 mm 1 m/s 698 mmHg 79%
07:00 +22°C° 0 mm 1 m/s 698 mmHg 73%
08:00 +24°C° 0 mm 2 m/s 699 mmHg 67%
09:00 +26°C° 0 mm 2 m/s 699 mmHg 61%
10:00 +26°C° 0 mm 3 m/s 699 mmHg 59%
11:00 +27°C° 0 mm 3 m/s 699 mmHg 56%
12:00 +28°C° 0 mm 4 m/s 699 mmHg 53%
13:00 +28°C° 0.2 mm 4 m/s 699 mmHg 54%
14:00 +27°C° 0.2 mm 4 m/s 699 mmHg 54%
15:00 +27°C° 0.2 mm 4 m/s 699 mmHg 55%
16:00 +26°C° 1.5 mm 3 m/s 699 mmHg 63%
17:00 +24°C° 1.5 mm 2 m/s 699 mmHg 70%
18:00 +23°C° 1.5 mm 1 m/s 699 mmHg 78%
19:00 +22°C° 0.7 mm 1 m/s 699 mmHg 80%
20:00 +21°C° 0.7 mm 1 m/s 699 mmHg 81%
21:00 +20°C° 0.7 mm 1 m/s 699 mmHg 83%
22:00 +20°C° 0.1 mm 1 m/s 699 mmHg 83%
23:00 +19°C° 0.1 mm 1 m/s 699 mmHg 83%

11 August, Marţi

Timp Temperatura Precipitaţii Vânt Presiune Umiditate
00:00 +19°C° 0.1 mm 1 m/s 699 mmHg 83%
01:00 +19°C° 0 mm 1 m/s 699 mmHg 83%
02:00 +18°C° 0 mm 1 m/s 699 mmHg 83%
03:00 +18°C° 0 mm 1 m/s 699 mmHg 83%
04:00 +18°C° 0 mm 1 m/s 699 mmHg 83%
05:00 +17°C° 0 mm 0 m/s 700 mmHg 83%
06:00 +17°C° 0 mm 0 m/s 700 mmHg 83%
07:00 +21°C° 0.1 mm 1 m/s 700 mmHg 73%
08:00 +23°C° 0.1 mm 2 m/s 700 mmHg 63%
09:00 +25°C° 0.1 mm 2 m/s 700 mmHg 54%
10:00 +26°C° 0.1 mm 2 m/s 700 mmHg 50%
11:00 +27°C° 0.1 mm 3 m/s 701 mmHg 46%
12:00 +27°C° 0.1 mm 3 m/s 701 mmHg 42%
13:00 +28°C° 0.2 mm 3 m/s 700 mmHg 43%
14:00 +28°C° 0.2 mm 2 m/s 700 mmHg 44%
15:00 +28°C° 0.2 mm 2 m/s 700 mmHg 45%
16:00 +27°C° 0.1 mm 1 m/s 700 mmHg 50%
17:00 +26°C° 0.1 mm 1 m/s 700 mmHg 54%
18:00 +25°C° 0.1 mm 1 m/s 700 mmHg 59%
19:00 +24°C° 0.2 mm 1 m/s 700 mmHg 64%
20:00 +22°C° 0.2 mm 1 m/s 700 mmHg 69%
21:00 +21°C° 0.2 mm 1 m/s 700 mmHg 75%
22:00 +20°C° 0.4 mm 1 m/s 700 mmHg 77%
23:00 +19°C° 0.4 mm 1 m/s 700 mmHg 80%
Arată mai mult